Weather in Verkhovsky Pogost

Russia / Vologda Oblast     60°27′39″N   42°57′28″E
temp.,
°C
wind,
m/s
gust,
m/s
humid.,
%
clouds,
%
prec.,
mm/h
press.,
hPa
HPBL,
m
14 may, fri
fri1400:00+15s2786100 0.6 1016175
03:00+13s399776 1.5 1016254
06:00+15ssw399366 0.1 1016539
09:00+17sw476816 0.1 1017981
12:00+20ssw58425 0.0 10171775
15:00+21sw573741 0.0 10161935
18:00+19sw3648100 0.0 1016938
21:00+13sw22735 0.0 101628
15 may, sat
sat1500:00+11sw1180100 0.0 101610
03:00+10sse2281100 0.0 101613
06:00+12se2787100 0.1 1016253
09:00+14sse2487100 0.4 1015309
12:00+20sse346499 0.1 10141127
15:00+18ese1286100 2.1 1012163
18:00+20se2478100 0.9 1010506
21:00+16se31092100 3.4 1009394
16 may, sun
sun1600:00+14s41095100 0.4 1008440
03:00+14ssw51193100 0.5 1008565
06:00+15ssw4139227 0.0 1008509
09:00+19ssw59650 0.0 10081029
12:00+22ssw610486 0.0 10082033
15:00+23ssw6114419 0.0 10072594
18:00+19sw510686 0.8 10071257
21:00+14sw411872 1.1 1008678
17 may, mon
mon1700:00+13sw4119451 0.0 1010478
03:00+12wsw399678 0.0 1011278
06:00+14wsw378734 0.0 1012382
09:00+18w476426 0.0 10141164
12:00+21w4751100 0.1 10141926
15:00+20w355596 0.1 10151253
18:00+19n116672 0.0 101511
21:00+14ene1183100 0.0 101611
18 may, tue
tue1800:00+13e228894 0.0 101725
03:00+12e249594 0.0 101787
06:00+14ese3785100 0.0 1016239
09:00+20ese466388 0.0 1015702
12:00+24se4651100 0.0 10151319
15:00+25se4646100 0.0 10141554
18:00+24se485478 0.0 1012761
21:00+18se3118444 0.0 1012190